When you browse on this site, cookies collect data to enhance your experience and personalize the content and advertising you see.
Visit our Privacy Policy to learn more. By continuing to use the site, you agree to this use of cookies and data.
  • In Norway
  • List of Countries
  • For 7 days
  • Water Temperature
  • Satellite Maps
  • Weather Map
  • Weather Widgets
  • user-avatar
    Login

    Hourly Weather Sydney

    Today, 22 January, Tuesday

    Time Temperature Precipitation Wind Pressure Humidity
    00:00 +24°C° 0 mm 2 mps 761 mmHg 90%
    01:00 +24°C° 0 mm 2 mps 761 mmHg 90%
    02:00 +24°C° 0 mm 2 mps 761 mmHg 90%
    03:00 +24°C° 0 mm 2 mps 761 mmHg 91%
    04:00 +24°C° 0 mm 1 mps 760 mmHg 92%
    05:00 +24°C° 0 mm 1 mps 760 mmHg 89%
    06:00 +25°C° 0 mm 1 mps 761 mmHg 86%
    07:00 +26°C° 0 mm 2 mps 761 mmHg 83%
    08:00 +28°C° 0 mm 2 mps 761 mmHg 74%
    09:00 +30°C° 0 mm 2 mps 760 mmHg 65%
    10:00 +33°C° 0 mm 1 mps 760 mmHg 51%
    11:00 +35°C° 0 mm 2 mps 760 mmHg 48%
    12:00 +36°C° 0 mm 3 mps 759 mmHg 45%
    13:00 +36°C° 0 mm 4 mps 759 mmHg 42%
    14:00 +36°C° 0 mm 4 mps 758 mmHg 45%
    15:00 +35°C° 0 mm 5 mps 758 mmHg 48%
    16:00 +35°C° 0 mm 6 mps 758 mmHg 50%
    17:00 +33°C° 0 mm 5 mps 758 mmHg 57%
    18:00 +32°C° 0 mm 5 mps 758 mmHg 64%
    19:00 +29°C° 0 mm 5 mps 758 mmHg 71%
    20:00 +29°C° 0 mm 5 mps 758 mmHg 73%
    21:00 +28°C° 0 mm 4 mps 758 mmHg 76%
    22:00 +27°C° 0 mm 4 mps 758 mmHg 79%
    23:00 +27°C° 0 mm 3 mps 758 mmHg 80%

    Tomorrow, 23 January, Wednesday

    Time Temperature Precipitation Wind Pressure Humidity
    00:00 +27°C° 0 mm 3 mps 758 mmHg 82%
    01:00 +26°C° 0 mm 2 mps 757 mmHg 84%
    02:00 +26°C° 0 mm 2 mps 757 mmHg 84%
    03:00 +26°C° 0 mm 2 mps 757 mmHg 84%
    04:00 +26°C° 0 mm 2 mps 757 mmHg 85%
    05:00 +27°C° 0 mm 1 mps 757 mmHg 79%
    06:00 +28°C° 0 mm 1 mps 757 mmHg 74%
    07:00 +27°C° 0 mm 0 mps 758 mmHg 68%
    08:00 +30°C° 0 mm 1 mps 758 mmHg 62%
    09:00 +32°C° 0 mm 2 mps 758 mmHg 55%
    10:00 +35°C° 0 mm 3 mps 758 mmHg 48%
    11:00 +33°C° 0 mm 5 mps 758 mmHg 54%
    12:00 +32°C° 0 mm 6 mps 758 mmHg 60%
    13:00 +29°C° 0 mm 8 mps 758 mmHg 66%
    14:00 +29°C° 0.3 mm 7 mps 758 mmHg 64%
    15:00 +29°C° 0.3 mm 6 mps 758 mmHg 62%
    16:00 +29°C° 0.3 mm 6 mps 758 mmHg 59%
    17:00 +28°C° 0.1 mm 6 mps 759 mmHg 60%
    18:00 +27°C° 0.1 mm 6 mps 759 mmHg 60%
    19:00 +27°C° 0.1 mm 6 mps 760 mmHg 60%
    20:00 +26°C° 0 mm 6 mps 760 mmHg 62%
    21:00 +26°C° 0 mm 7 mps 760 mmHg 65%
    22:00 +24°C° 0 mm 7 mps 760 mmHg 67%
    23:00 +24°C° 0 mm 6 mps 760 mmHg 71%

    Day after tomorrow, 24 January, Thursday

    Time Temperature Precipitation Wind Pressure Humidity
    00:00 +23°C° 0 mm 6 mps 760 mmHg 76%
    01:00 +23°C° 0 mm 5 mps 760 mmHg 80%
    02:00 +23°C° 0 mm 6 mps 760 mmHg 79%
    03:00 +23°C° 0 mm 6 mps 760 mmHg 78%
    04:00 +23°C° 0 mm 7 mps 760 mmHg 77%
    05:00 +23°C° 0 mm 6 mps 760 mmHg 76%
    06:00 +23°C° 0 mm 6 mps 761 mmHg 75%
    07:00 +23°C° 0 mm 6 mps 761 mmHg 74%
    08:00 +25°C° 0 mm 5 mps 761 mmHg 70%
    09:00 +26°C° 0 mm 5 mps 761 mmHg 66%
    10:00 +27°C° 0 mm 5 mps 761 mmHg 63%
    11:00 +28°C° 0 mm 5 mps 761 mmHg 60%
    12:00 +29°C° 0 mm 5 mps 761 mmHg 57%
    13:00 +30°C° 0 mm 6 mps 760 mmHg 55%
    14:00 +30°C° 0 mm 6 mps 760 mmHg 58%
    15:00 +29°C° 0 mm 6 mps 759 mmHg 61%
    16:00 +29°C° 0 mm 6 mps 759 mmHg 64%
    17:00 +28°C° 0 mm 5 mps 759 mmHg 69%
    18:00 +27°C° 0 mm 5 mps 760 mmHg 75%
    19:00 +26°C° 0 mm 4 mps 760 mmHg 81%
    20:00 +26°C° 0 mm 4 mps 760 mmHg 83%
    21:00 +25°C° 0 mm 3 mps 761 mmHg 85%
    22:00 +25°C° 0 mm 3 mps 761 mmHg 87%
    23:00 +25°C° 0 mm 3 mps 761 mmHg 87%

    25 January, Friday

    Time Temperature Precipitation Wind Pressure Humidity
    00:00 +25°C° 0 mm 3 mps 760 mmHg 87%
    01:00 +25°C° 0 mm 2 mps 760 mmHg 87%
    02:00 +24°C° 0 mm 2 mps 760 mmHg 88%
    03:00 +24°C° 0 mm 2 mps 760 mmHg 89%
    04:00 +24°C° 0 mm 2 mps 759 mmHg 89%
    05:00 +24°C° 0 mm 2 mps 759 mmHg 86%
    06:00 +25°C° 0 mm 1 mps 760 mmHg 82%
    07:00 +26°C° 0 mm 1 mps 760 mmHg 79%
    08:00 +28°C° 0 mm 2 mps 760 mmHg 71%
    09:00 +30°C° 0 mm 2 mps 759 mmHg 62%
    10:00 +33°C° 0 mm 3 mps 759 mmHg 54%
    11:00 +34°C° 0 mm 4 mps 759 mmHg 49%
    12:00 +36°C° 0 mm 4 mps 758 mmHg 45%
    13:00 +39°C° 0 mm 5 mps 757 mmHg 41%
    14:00 +37°C° 0 mm 5 mps 757 mmHg 42%
    15:00 +38°C° 0 mm 6 mps 756 mmHg 44%
    16:00 +38°C° 0 mm 6 mps 755 mmHg 46%
    17:00 +35°C° 0 mm 7 mps 755 mmHg 53%
    18:00 +33°C° 0 mm 7 mps 756 mmHg 60%
    19:00 +30°C° 0 mm 7 mps 756 mmHg 68%
    20:00 +30°C° 0 mm 6 mps 756 mmHg 69%
    21:00 +29°C° 0 mm 6 mps 756 mmHg 70%
    22:00 +29°C° 0 mm 5 mps 756 mmHg 71%
    23:00 +28°C° 0 mm 5 mps 756 mmHg 72%

    26 January, Saturday

    Time Temperature Precipitation Wind Pressure Humidity
    00:00 +28°C° 0 mm 4 mps 756 mmHg 74%
    01:00 +27°C° 0 mm 3 mps 755 mmHg 76%
    02:00 +27°C° 0 mm 3 mps 755 mmHg 76%
    03:00 +27°C° 0 mm 3 mps 755 mmHg 76%
    04:00 +26°C° 0 mm 3 mps 755 mmHg 77%
    05:00 +27°C° 0 mm 3 mps 755 mmHg 71%
    06:00 +29°C° 0 mm 3 mps 756 mmHg 65%
    07:00 +30°C° 0 mm 3 mps 756 mmHg 58%
    08:00 +34°C° 0 mm 2 mps 756 mmHg 50%
    09:00 +37°C° 0 mm 2 mps 756 mmHg 42%
    10:00 +40°C° 0 mm 1 mps 756 mmHg 34%
    11:00 +41°C° 0 mm 2 mps 756 mmHg 31%
    12:00 +43°C° 0 mm 3 mps 755 mmHg 29%
    13:00 +44°C° 0 mm 4 mps 754 mmHg 26%
    14:00 +43°C° 0 mm 5 mps 754 mmHg 30%
    15:00 +41°C° 0 mm 6 mps 753 mmHg 35%
    16:00 +40°C° 0 mm 7 mps 753 mmHg 39%
    17:00 +38°C° 0 mm 7 mps 753 mmHg 44%
    18:00 +36°C° 0 mm 7 mps 753 mmHg 49%
    19:00 +34°C° 0 mm 7 mps 753 mmHg 53%
    20:00 +34°C° 0 mm 7 mps 753 mmHg 54%
    21:00 +33°C° 0 mm 7 mps 753 mmHg 55%
    22:00 +33°C° 0 mm 6 mps 754 mmHg 57%
    23:00 +32°C° 0 mm 5 mps 754 mmHg 58%

    27 January, Sunday

    Time Temperature Precipitation Wind Pressure Humidity
    00:00 +31°C° 0 mm 3 mps 754 mmHg 59%
    01:00 +30°C° 0 mm 2 mps 754 mmHg 60%
    02:00 +30°C° 0 mm 2 mps 754 mmHg 60%
    03:00 +30°C° 0 mm 1 mps 753 mmHg 61%
    04:00 +29°C° 0 mm 1 mps 753 mmHg 61%
    05:00 +30°C° 0 mm 2 mps 753 mmHg 60%
    06:00 +30°C° 0 mm 2 mps 754 mmHg 58%
    07:00 +30°C° 0 mm 3 mps 754 mmHg 56%
    08:00 +34°C° 0 mm 3 mps 754 mmHg 49%
    09:00 +37°C° 0 mm 3 mps 754 mmHg 41%
    10:00 +39°C° 0 mm 3 mps 754 mmHg 33%
    11:00 +41°C° 0 mm 4 mps 754 mmHg 34%
    12:00 +41°C° 0 mm 5 mps 754 mmHg 34%
    13:00 +41°C° 0 mm 6 mps 754 mmHg 34%
    14:00 +37°C° 0.3 mm 5 mps 753 mmHg 45%
    15:00 +35°C° 0.3 mm 5 mps 753 mmHg 55%
    16:00 +32°C° 0.3 mm 5 mps 753 mmHg 66%
    17:00 +29°C° 2.3 mm 6 mps 754 mmHg 73%
    18:00 +28°C° 2.3 mm 6 mps 754 mmHg 80%
    19:00 +26°C° 2.3 mm 6 mps 755 mmHg 87%
    20:00 +26°C° 0.3 mm 6 mps 755 mmHg 88%
    21:00 +26°C° 0.3 mm 5 mps 756 mmHg 88%
    22:00 +26°C° 0.3 mm 5 mps 757 mmHg 88%
    23:00 +26°C° 1.4 mm 5 mps 757 mmHg 89%
    Show more